Location: ????????
(60.4333°N, 46.4710°E)
Time: 03:57:43
(UTC+00:00)

NOSS 0 Rocket - Pass Details

Date: 25 November 2020
Orbit: 937 x 952 km, 70.0° (Epoch: 19 January)

Event Time Altitude Azimuth Distance (km) Brightness Sun altitude
Rises 14:16:36 0° 197° (SSW) 3,620 7.5 -15.1°
Reaches altitude 10° 14:19:11 10° 193° (SSW) 2,677 6.7 -15.4°
Maximum altitude 14:25:10 51° 119° (ESE) 1,186 4.2 -16.1°
Enters shadow 14:28:54 23° 54° (NE) 1,921 5.0 -16.6°
